Total_Precipitation_Accumulation
2.00 1.97 1.86 1.86 1.80 1.98 2.18 2.48 2.40 2.63 2.56 2.28 1.93 1.73 1.72 1.72 1.65 1.89 2.16 2.20 2.04 2.04 2.69 3.10 3.00 2.71 2.30 1.88 1.61 1.49 1.38 1.20 1.04 0.83 0.75 0.80 0.82 0.80 0.70 0.54 0.46 0.37 0.29
2.46 2.39 2.17 2.14 2.03 2.10 2.41 2.64 2.65 3.02 2.85 2.69 2.23 2.06 1.91 1.84 1.81 2.00 2.23 2.42 2.36 2.30 2.59 3.02 3.28 3.19 2.81 2.28 1.86 1.61 1.51 1.44 1.30 0.99 0.82 0.84 0.89 0.89 0.83 0.69 0.55 0.42 0.32
2.59 2.47 2.32 2.23 2.34 2.46 2.63 2.67 2.77 3.08 2.81 2.69 2.50 2.32 2.12 1.94 1.84 2.02 2.31 2.61 2.39 2.30 2.57 2.93 3.29 3.23 3.06 2.75 2.27 1.96 1.74 1.58 1.51 1.23 0.94 0.83 0.84 0.85 0.83 0.78 0.64 0.47 0.32
2.62 2.67 2.43 2.24 2.48 2.61 2.77 2.93 2.90 2.97 2.97 2.92 2.76 2.41 2.26 2.15 1.91 1.96 2.09 2.26 2.42 2.05 2.41 2.91 3.08 2.95 2.97 3.08 2.98 2.75 2.41 2.03 1.79 1.48 1.17 0.98 0.90 0.86 0.83 0.79 0.68 0.49 0.31
2.52 2.78 2.59 2.56 2.68 2.87 2.77 2.59 2.95 3.07 3.01 2.99 2.67 2.51 2.15 2.03 1.96 1.87 1.92 2.02 2.24 2.20 2.19 2.35 2.77 2.68 2.90 3.27 3.45 3.53 3.28 2.82 2.31 1.93 1.57 1.30 1.18 1.03 0.87 0.81 0.72 0.52 0.34
2.50 2.75 2.55 2.59 2.78 2.96 3.01 3.00 3.08 3.05 2.92 2.98 2.63 2.42 2.09 1.78 1.75 1.70 1.58 1.74 1.85 1.68 1.76 1.93 2.26 2.02 2.25 2.66 3.09 3.52 3.77 3.69 3.15 2.51 2.18 1.95 1.78 1.47 1.08 0.85 0.71 0.59 0.44
2.41 2.67 2.41 2.70 2.85 2.88 2.99 3.02 3.16 3.05 2.88 3.05 2.93 2.43 1.95 1.66 1.50 1.36 1.37 1.48 1.45 1.53 1.76 2.05 2.32 2.35 2.11 2.11 2.31 2.78 3.48 4.00 3.86 3.28 2.94 2.72 2.50 2.07 1.43 1.06 0.77 0.61 0.53
2.28 2.42 2.70 2.75 2.83 2.90 2.91 2.86 2.89 2.70 2.52 2.87 2.92 2.70 2.11 1.74 1.39 1.18 1.36 1.35 1.44 1.67 1.71 1.77 2.08 2.40 2.30 2.32 2.08 2.04 2.90 3.82 4.24 4.12 3.89 3.60 3.21 2.50 1.84 1.41 0.99 0.72 0.62
2.38 2.48 2.65 2.74 2.67 2.60 2.65 2.74 2.64 2.49 2.34 2.47 2.74 2.76 2.29 1.82 1.46 1.21 1.22 1.29 1.59 1.76 1.69 1.69 1.70 1.82 1.89 2.26 2.49 2.22 2.33 2.67 3.33 4.19 4.58 4.48 3.79 2.75 2.05 1.69 1.39 1.02 0.75
2.10 2.20 2.27 2.43 2.49 2.48 2.46 2.41 2.39 2.41 2.36 2.24 2.45 2.53 2.38 2.14 1.89 1.41 1.15 1.19 1.44 1.56 1.51 1.41 1.48 1.68 1.80 2.13 2.39 2.11 1.89 1.83 2.06 2.99 3.89 4.11 3.72 2.82 2.17 1.93 1.88 1.58 1.10
1.91 1.90 2.00 2.19 2.24 2.16 2.16 2.29 2.46 2.43 2.29 2.16 2.26 2.35 2.48 2.40 2.10 1.78 1.37 1.27 1.27 1.20 1.31 1.33 1.35 1.45 1.66 1.96 2.17 1.87 1.79 1.61 1.52 1.82 2.44 2.92 3.05 2.73 2.30 2.22 2.39 2.30 1.85
1.83 1.77 1.79 1.89 1.95 1.95 1.92 1.97 2.08 2.12 2.10 2.19 2.22 2.21 2.31 2.31 2.20 2.09 1.70 1.47 1.35 1.08 1.12 1.19 1.27 1.32 1.41 1.59 1.53 1.55 1.65 1.48 1.33 1.31 1.54 1.92 2.26 2.40 2.29 2.34 2.56 2.63 2.51
1.76 1.71 1.65 1.60 1.60 1.63 1.71 1.88 1.90 1.91 1.99 2.10 2.12 2.14 2.06 2.00 2.08 2.07 1.89 1.63 1.45 1.12 1.12 1.05 1.09 1.17 1.14 1.40 1.49 1.54 1.44 1.31 1.22 1.17 1.20 1.34 1.57 1.77 1.95 2.10 2.37 2.63 2.78
1.69 1.57 1.44 1.38 1.36 1.39 1.48 1.66 1.84 1.84 1.93 1.98 1.93 1.97 1.87 1.79 1.92 1.89 1.86 1.88 1.71 1.52 1.47 1.29 1.06 1.03 1.10 1.20 1.29 1.34 1.24 1.17 1.05 0.97 0.97 1.04 1.16 1.30 1.44 1.65 1.88 2.05 2.21
1.39 1.35 1.32 1.30 1.25 1.28 1.32 1.37 1.50 1.52 1.61 1.66 1.74 1.71 1.62 1.62 1.71 1.75 1.85 1.93 1.88 1.74 1.70 1.60 1.25 1.03 1.04 1.14 1.34 1.19 1.12 1.03 0.94 0.87 0.78 0.81 0.85 0.95 1.05 1.16 1.34 1.51 1.59
1.29 1.21 1.21 1.21 1.16 1.14 1.16 1.19 1.24 1.30 1.28 1.33 1.50 1.52 1.50 1.51 1.62 1.66 1.72 1.86 1.96 1.97 1.81 1.63 1.44 1.17 1.17 1.08 1.19 1.18 1.15 1.08 0.90 0.78 0.69 0.67 0.70 0.78 0.88 0.95 1.03 1.15 1.20
1.22 1.21 1.17 1.13 1.03 0.97 0.97 1.00 1.01 1.11 1.13 1.12 1.19 1.22 1.28 1.39 1.53 1.58 1.62 1.68 1.89 2.06 1.94 1.84 1.71 1.58 1.45 1.29 1.13 1.12 1.14 1.07 0.90 0.76 0.63 0.60 0.63 0.66 0.71 0.80 0.89 1.00 1.07
0.97 0.96 0.95 1.02 1.04 1.03 1.00 0.99 0.96 0.95 1.01 1.03 1.09 1.18 1.24 1.36 1.48 1.46 1.54 1.62 1.81 2.04 2.11 2.24 2.28 2.03 1.74 1.51 1.39 1.24 1.01 0.91 0.92 0.79 0.64 0.57 0.56 0.59 0.62 0.67 0.74 0.87 0.98
0.87 0.85 0.86 0.89 0.91 0.99 1.10 1.12 1.10 1.10 1.12 1.04 1.09 1.19 1.18 1.22 1.30 1.33 1.44 1.57 1.72 1.87 2.05 2.15 2.28 2.11 1.92 1.63 1.63 1.44 1.19 1.11 0.90 0.83 0.72 0.61 0.56 0.56 0.57 0.62 0.68 0.74 0.82
0.88 0.86 0.81 0.82 0.84 0.84 0.92 1.05 1.11 1.11 1.08 1.03 1.03 1.03 1.00 1.02 1.11 1.20 1.26 1.42 1.57 1.71 1.83 1.88 2.01 2.08 2.10 2.07 2.01 1.78 1.61 1.41 1.14 0.90 0.85 0.68 0.61 0.58 0.56 0.56 0.60 0.68 0.79
0.80 0.84 0.76 0.73 0.79 0.82 0.80 0.82 0.94 0.97 0.97 0.96 0.97 0.90 0.79 0.79 0.83 0.87 0.94 1.18 1.35 1.50 1.65 1.75 1.88 2.05 2.17 2.30 2.16 2.03 1.90 1.77 1.52 1.31 1.28 1.00 0.85 0.71 0.60 0.58 0.59 0.61 0.69
0.77 0.76 0.69 0.68 0.69 0.62 0.63 0.60 0.62 0.71 0.77 0.80 0.84 0.86 0.77 0.66 0.61 0.64 0.66 0.79 0.97 1.13 1.37 1.63 1.81 2.03 2.13 2.10 2.21 2.20 2.13 1.99 1.86 1.67 1.63 1.59 1.42 1.25 1.00 0.74 0.68 0.60 0.57
0.75 0.73 0.66 0.62 0.62 0.60 0.48 0.43 0.43 0.53 0.63 0.66 0.70 0.76 0.67 0.59 0.58 0.54 0.59 0.66 0.71 0.78 0.92 1.25 1.53 1.65 1.68 1.69 1.93 2.12 2.12 2.05 2.01 1.89 1.88 1.96 1.84 1.59 1.22 1.02 0.89 0.72 0.63
0.72 0.73 0.67 0.63 0.67 0.62 0.48 0.40 0.36 0.36 0.49 0.59 0.62 0.67 0.69 0.70 0.62 0.60 0.61 0.66 0.64 0.64 0.67 0.75 0.91 1.06 1.24 1.40 1.62 1.91 2.15 2.12 2.13 2.09 2.03 2.15 2.06 1.90 1.55 1.19 0.98 0.77 0.68
0.67 0.68 0.69 0.69 0.71 0.68 0.49 0.37 0.35 0.42 0.53 0.58 0.61 0.61 0.65 0.70 0.64 0.53 0.54 0.61 0.65 0.67 0.59 0.60 0.64 0.76 0.91 1.06 1.25 1.50 1.76 2.04 2.29 2.33 2.12 2.15 2.12 2.12 2.09 1.67 1.25 0.99 0.78
0.72 0.66 0.67 0.71 0.71 0.75 0.55 0.33 0.30 0.43 0.60 0.66 0.75 0.73 0.59 0.55 0.54 0.42 0.46 0.57 0.59 0.61 0.56 0.58 0.60 0.62 0.68 0.81 0.94 1.15 1.35 1.59 1.85 2.03 2.01 2.07 2.19 2.45 2.57 2.17 1.62 1.18 0.96